This is the latest recevied weather packets stored in our database for station/object W4JCW. If no packets are shown the sender has not sent any weather packets the latest 10 day(s).
| Time | Temp. | Humidity | Pressure | Rain* | Wind** | Luminosity | Snow |
|---|---|---|---|---|---|---|---|
| 1778079133 | 21.11° C | 73% | 1014.2 hPa | 0 mm | - | 232 W/m² | - |
| 1778078830 | 21.11° C | 73% | 1014.3 hPa | 0 mm | - | 209 W/m² | - |
| 1778078527 | 21.11° C | 73% | 1014.3 hPa | 0 mm | - | 146 W/m² | - |
| 1778078225 | 21.11° C | 72% | 1014.1 hPa | 0 mm | - | 178 W/m² | - |
| 1778077922 | 21.11° C | 73% | 1014 hPa | 0 mm | - | 171 W/m² | - |
| 1778077621 | 21.11° C | 73% | 1014 hPa | 0 mm | - | 212 W/m² | - |
| 1778077318 | 20.56° C | 73% | 1014.1 hPa | 0 mm | - | 226 W/m² | - |
| 1778077016 | 20.56° C | 73% | 1014.2 hPa | 0 mm | - | 219 W/m² | - |
| 1778076714 | 20.56° C | 74% | 1014.1 hPa | 0 mm | - | 203 W/m² | - |
| 1778076411 | 20.56° C | 74% | 1014 hPa | 0 mm | - | 243 W/m² | - |
| 1778076108 | 20° C | 75% | 1014.1 hPa | 0 mm | - | 247 W/m² | - |
| 1778075805 | 20° C | 76% | 1014.3 hPa | 0 mm | - | 236 W/m² | - |
| 1778075501 | 20° C | 75% | 1014.1 hPa | 0 mm | - | 178 W/m² | - |
| 1778075198 | 20° C | 76% | 1014 hPa | 0 mm | - | 161 W/m² | - |
| 1778074894 | 19.44° C | 76% | 1014.1 hPa | 0 mm | - | 181 W/m² | - |
| 1778074591 | 19.44° C | 76% | 1014.2 hPa | 0 mm | - | 198 W/m² | - |
| 1778074288 | 19.44° C | 79% | 1014.1 hPa | 0 mm | - | 173 W/m² | - |
| 1778073985 | 18.89° C | 79% | 1014 hPa | 0 mm | - | 165 W/m² | - |
| 1778073682 | 18.89° C | 79% | 1014.1 hPa | 0 mm | - | 174 W/m² | - |
| 1778073380 | 18.33° C | 80% | 1013.8 hPa | 0 mm | - | 142 W/m² | - |
| 1778073076 | 18.33° C | 82% | 1014.2 hPa | 0 mm | - | 159 W/m² | - |
| 1778072773 | 18.33° C | 82% | 1014.3 hPa | 0 mm | - | 124 W/m² | - |
| 1778072470 | 17.78° C | 82% | 1014.3 hPa | 0 mm | - | 128 W/m² | - |
| 1778072169 | 17.78° C | 84% | 1014.5 hPa | 0 mm | - | 131 W/m² | - |
| 1778071866 | 17.22° C | 85% | 1014.3 hPa | 0 mm | - | 119 W/m² | - |
* Rain latest hour (hover to see other rain measurements)
** Current wind speed in m/s (hover to see current wind gust speed)